CW7765 Weather Reports


Display with metric or nautical units.
time (UTC)temp
F
wind
direction
speed
MPH
gust
MPH
rain 1hr
in
rain 24hr
in
rain mn
in
humidity
%
barometer
mb
20180717092316 76 347 10.0 12.0 0.00 0.00 0.00 79 1013.9
20180717091316 76 284 5.0 9.0 0.00 0.00 0.00 78 1013.9
20180717090316 76 330 2.0 9.0 0.00 0.00 0.00 76 1013.6
20180717085316 76 296 1.0 8.0 0.00 0.00 0.00 78 1013.7
20180717084316 75 289 5.0 8.0 0.00 0.00 0.00 82 1013.5
20180717083316 74 296 4.0 9.0 0.00 0.00 0.00 89 1013.5
20180717082316 72 315 5.0 6.0 0.00 0.00 0.00 93 1013.6
20180717081316 71 13 0.0 0.0 0.00 0.00 0.00 92 1013.6
20180717080316 70 13 0.0 0.0 0.00 0.00 0.00 92 1013.6
20180717075316 70 13 0.0 0.0 0.00 0.00 0.00 91 1013.7
20180717074316 71 13 0.0 0.0 0.00 0.00 0.00 91 1013.7
20180717073316 71 13 0.0 0.0 0.00 0.00 0.00 90 1013.7
20180717072316 72 13 0.0 0.0 0.00 0.00 0.00 89 1013.7
20180717071316 72 13 0.0 0.0 0.00 0.00 0.00 89 1013.7
20180717070316 72 13 0.0 0.0 0.00 0.00 0.00 88 1013.6
20180717065316 73 13 0.0 4.0 0.00 0.00 0.00 88 1013.7
20180717064316 73 15 0.0 2.0 0.00 0.00 0.00 88 1013.7
20180717063316 73 15 0.0 0.0 0.00 0.00 0.00 87 1013.7
20180717062316 73 15 0.0 0.0 0.00 0.00 0.00 85 1013.7
20180717061317 74 15 0.0 0.0 0.00 0.00 0.00 83 1013.7
20180717060316 75 15 0.0 0.0 0.00 0.00 0.00 81 1013.7
20180717055316 75 15 0.0 1.0 0.00 0.00 0.00 80 1013.7
20180717054316 75 15 0.0 0.0 0.00 0.00 0.00 80 1013.8
20180717053316 75 15 0.0 1.0 0.00 0.00 0.00 80 1013.7
20180717052316 75 15 0.0 1.0 0.00 0.00 0.00 81 1013.7
20180717051316 75 15 0.0 0.0 0.00 0.00 0.00 82 1013.7
20180717050316 75 15 0.0 0.0 0.00 0.00 0.00 83 1013.7
20180717045317 75 15 0.0 0.0 0.00 0.00 0.00 83 1013.6
20180717044316 75 15 0.0 0.0 0.00 0.00 0.00 84 1013.7
20180717043316 75 15 0.0 0.0 0.00 0.00 0.00 85 1013.7
20180717042317 75 15 0.0 0.0 0.00 0.00 0.00 86 1013.8
20180717041316 75 15 0.0 0.0 0.00 0.00 0.00 86 1013.7
20180717040316 75 15 0.0 0.0 0.00 0.00 0.00 86 1013.7
20180717035317 75 15 0.0 1.0 0.00 0.00 0.00 86 1013.6
20180717034317 75 15 1.0 4.0 0.00 0.00 0.00 86 1013.6
20180717033316 75 15 0.0 1.0 0.00 0.00 0.00 87 1013.5
20180717032316 75 15 0.0 4.0 0.00 0.00 0.00 87 1013.6
20180717031316 75 15 0.0 6.0 0.00 0.00 0.00 87 1013.5
20180717030317 76 15 4.0 4.0 0.00 0.00 0.00 88 1013.4
20180717025317 76 15 2.0 5.0 0.00 0.00 0.00 88 1013.3
20180717024317 76 15 3.0 6.0 0.00 0.00 0.00 89 1013.2
20180717023317 76 16 0.0 8.0 0.00 0.00 0.00 89 1013.2
20180717022317 76 14 3.0 8.0 0.00 0.00 0.00 89 1013.0
20180717021317 76 13 1.0 7.0 0.00 0.00 0.00 89 1012.8
20180717020317 76 9 5.0 7.0 0.00 0.00 0.00 90 1012.8
20180717015317 76 9 0.0 5.0 0.00 0.00 0.00 90 1012.6
20180717014317 76 9 0.0 5.0 0.00 0.00 0.00 91 1012.4
20180717013317 76 9 5.0 7.0 0.00 0.00 0.00 91 1012.4
20180717012317 76 9 4.0 8.0 0.00 0.00 0.00 91 1012.3
20180717011317 76 13 1.0 8.0 0.00 0.00 0.00 91 1012.2
20180717010317 76 12 2.0 9.0 0.00 0.00 0.00 91 1012.2
20180717005317 77 20 2.0 9.0 0.00 0.00 0.00 91 1012.1
20180717004317 77 5 5.0 7.0 0.00 0.00 0.00 91 1012.0
20180717003317 78 18 1.0 10.0 0.00 0.00 0.00 90 1011.9
20180717002317 78 18 4.0 8.0 0.00 0.00 0.00 89 1011.7
20180717001317 78 5 0.0 11.0 0.00 0.00 0.00 89 1011.6
20180717000317 78 22 5.0 10.0 0.00 0.00 0.00 88 1011.5
20180716235317 79 9 3.0 7.0 0.00 0.00 0.00 87 1011.5
20180716234318 79 340 0.0 8.0 0.00 0.00 0.00 87 1011.5
20180716233317 80 323 2.0 7.0 0.00 0.00 0.00 86 1011.6
20180716232317 79 342 4.0 8.0 0.00 0.00 0.00 86 1011.5
20180716231317 80 317 8.0 9.0 0.00 0.00 0.00 85 1011.4
20180716230317 80 328 6.0 7.0 0.00 0.00 0.00 83 1011.3
20180716225317 80 27 4.0 7.0 0.00 0.00 0.00 83 1011.2
20180716224317 80 350 0.0 8.0 0.00 0.00 0.00 84 1011.3
20180716223317 80 14 0.0 7.0 0.00 0.00 0.00 85 1011.4
20180716222317 81 16 1.0 9.0 0.00 0.00 0.00 84 1011.6
20180716221317 81 336 2.0 9.0 0.00 0.00 0.00 84 1011.4
20180716220317 80 307 6.0 10.0 0.00 0.00 0.00 85 1011.4
20180716215317 80 327 6.0 10.0 0.00 0.00 0.00 83 1011.7
20180716214317 81 346 4.0 10.0 0.00 0.00 0.00 83 1011.6
20180716213317 81 340 8.0 11.0 0.00 0.00 0.00 82 1011.5
20180716212317 81 279 4.0 8.0 0.00 0.00 0.00 83 1011.4
20180716211317 81 322 5.0 9.0 0.00 0.00 0.00 83 1011.6
20180716210317 82 288 7.0 9.0 0.00 0.00 0.00 81 1011.6
20180716205317 83 271 4.0 8.0 0.00 0.00 0.00 78 1011.5
20180716204317 83 292 0.0 9.0 0.00 0.00 0.00 77 1011.4
20180716203317 83 313 4.0 8.0 0.00 0.00 0.00 80 1011.4
20180716202317 83 343 4.0 8.0 0.00 0.00 0.00 78 1011.5
20180716201317 83 295 2.0 7.0 0.00 0.00 0.00 76 1011.3
20180716200317 83 306 0.0 9.0 0.00 0.00 0.00 78 1011.2
20180716195317 82 329 4.0 7.0 0.00 0.00 0.00 77 1011.2
20180716194317 82 311 0.0 4.0 0.00 0.00 0.00 77 1011.4
20180716193317 82 314 4.0 7.0 0.00 0.00 0.00 77 1011.6
20180716192317 82 340 0.0 7.0 0.00 0.00 0.00 76 1011.6
20180716191317 83 328 4.0 7.0 0.00 0.00 0.00 75 1011.6
20180716190318 83 299 0.0 6.0 0.00 0.00 0.00 76 1011.6
20180716185317 84 290 4.0 7.0 0.00 0.00 0.00 73 1011.8
20180716184317 85 330 4.0 10.0 0.00 0.00 0.00 71 1012.2
20180716183317 85 274 7.0 10.0 0.00 0.00 0.00 72 1011.9
20180716182318 86 331 2.0 9.0 0.00 0.00 0.00 70 1011.9
20180716181317 86 341 5.0 8.0 0.00 0.00 0.00 70 1011.7
20180716180318 86 294 3.0 8.0 0.00 0.00 0.00 67 1011.6
20180716175317 86 327 0.0 8.0 0.00 0.00 0.00 68 1011.5
20180716174318 86 283 0.0 8.0 0.00 0.00 0.00 69 1011.6
20180716173318 86 333 5.0 7.0 0.00 0.00 0.00 67 1011.9
20180716172318 85 297 4.0 8.0 0.00 0.00 0.00 70 1012.2
20180716171318 86 333 4.0 6.0 0.00 0.00 0.00 69 1012.1
20180716170318 86 281 0.0 7.0 0.00 0.00 0.00 69 1012.2
20180716165318 86 290 2.0 6.0 0.00 0.00 0.00 68 1012.2
20180716164318 86 278 0.0 6.0 0.00 0.00 0.00 70 1012.4
20180716163318 85 290 4.0 7.0 0.00 0.00 0.00 70 1012.5
20180716162318 86 288 3.0 6.0 0.00 0.00 0.00 69 1012.5
20180716161318 86 274 0.0 5.0 0.00 0.00 0.00 68 1012.5
20180716160318 85 290 4.0 7.0 0.00 0.00 0.00 70 1012.6
20180716155318 85 260 3.0 7.0 0.00 0.00 0.00 70 1012.6
20180716154318 86 277 1.0 6.0 0.00 0.00 0.00 70 1012.5
20180716153318 86 272 0.0 7.0 0.00 0.00 0.00 71 1012.5
20180716152318 85 290 0.0 6.0 0.00 0.00 0.00 72 1012.5
20180716151318 84 275 0.0 4.0 0.00 0.00 0.00 74 1012.3
20180716150318 84 284 0.0 5.0 0.00 0.00 0.00 75 1012.3
20180716145318 83 285 5.0 7.0 0.00 0.00 0.00 77 1012.5
20180716144318 83 281 0.0 5.0 0.00 0.00 0.00 78 1012.5
20180716143318 83 276 0.0 6.0 0.00 0.00 0.00 79 1012.5
20180716142318 82 274 0.0 6.0 0.00 0.00 0.00 80 1012.4
20180716141318 82 233 1.0 3.0 0.00 0.00 0.00 82 1012.4
20180716140318 81 182 0.0 3.0 0.00 0.00 0.00 85 1012.4
20180716135318 79 158 0.0 4.0 0.00 0.00 0.00 89 1012.6
20180716134318 78 143 0.0 5.0 0.00 0.00 0.00 91 1012.6
20180716133318 77 177 3.0 4.0 0.00 0.00 0.00 92 1012.7
20180716132318 77 180 0.0 5.0 0.00 0.00 0.00 92 1012.7
20180716131318 77 189 2.0 4.0 0.00 0.00 0.00 92 1012.7
20180716130318 77 189 2.0 3.0 0.00 0.00 0.00 92 1012.7
20180716125319 77 189 0.0 0.0 0.00 0.00 0.00 92 1012.5
20180716124318 77 189 0.0 0.0 0.00 0.00 0.00 92 1012.5
20180716123318 77 190 0.0 0.0 0.00 0.00 0.00 92 1012.4
20180716122318 76 190 0.0 5.0 0.00 0.00 0.00 92 1012.4
20180716121319 77 173 1.0 6.0 0.00 0.00 0.00 92 1012.4
20180716120318 77 145 1.0 5.0 0.00 0.00 0.00 92 1012.2
20180716115318 76 132 0.0 1.0 0.00 0.00 0.00 93 1012.4
20180716114318 76 171 0.0 0.0 0.00 0.00 0.00 94 1012.4
20180716113319 75 171 0.0 4.0 0.00 0.00 0.00 94 1012.3
20180716112318 75 171 4.0 6.0 0.00 0.00 0.00 93 1012.2
20180716111318 75 171 0.0 6.0 0.00 0.00 0.00 93 1012.3
20180716110319 75 171 0.0 3.0 0.00 0.00 0.00 93 1012.2
20180716105318 75 171 0.0 5.0 0.00 0.00 0.00 93 1012.1
20180716104318 75 171 0.0 4.0 0.00 0.00 0.00 93 1012.1
20180716103319 75 171 0.0 1.0 0.00 0.00 0.00 93 1012.0
20180716102235 75 171 0.0 2.0 0.00 0.00 0.00 93 1011.9
20180716101236 75 171 3.0 4.0 0.00 0.00 0.00 93 1011.7
20180716100235 75 171 0.0 5.0 0.00 0.00 0.00 93 1011.7
20180716095237 75 171 2.0 6.0 0.00 0.00 0.00 92 1011.6
20180716094235 75 171 0.0 6.0 0.00 0.00 0.00 92 1011.6
20180716093236 76 171 0.0 3.0 0.00 0.00 0.00 92 1011.6